Regional Weather Roundup
Issued by NWS Northern Indiana

Home | Current Version | Previous Version | Graphics & Text | Print | Product List | Glossary On
Versions: 1 2 3 4 5 6 7 8 9 10 11 12 13 14 15 16 17 18 19 20 21 22 23 24 25 26 27 28 29 30 31 32 33 34 35 36 37 38 39 40 41 42 43 44 45 46 47 48 49 50
000
ASUS43 KIWX 220300
RWRIWX

KIWX WEATHER ROUNDUP
NATIONAL WEATHER SERVICE NORTHERN INDIANA
1100 PM EDT THU AUG 21 2014

NOTE: "FAIR" INDICATES FEW OR NO CLOUDS BELOW 12,000 FEET WITH NO
SIGNIFICANT WEATHER AND/OR OBSTRUCTIONS TO VISIBILITY.

* THESE STATIONS ARE NOT UNDER NWS QUALITY CONTROL. THEY ALSO MAY NOT
  REPORT WEATHER SUCH AS PRECIPITATION OR FOG.

INZ001>027-220400-
NORTHERN INDIANA

CITY           SKY/WX    TMP DP  RH WIND       PRES   REMARKS
GARY*          MOCLDY    73  72  94 CALM      29.94R
VALPARAISO     MOCLDY    72  70  93 S3        29.96R
KNOX*          CLOUDY    70  67  90 S5        29.95S
SOUTH BEND     MOCLDY    73  68  84 S5        29.97R
GOSHEN         CLOUDY    73  70  90 SW6       29.97F
MONTICELLO*    CLOUDY    73  71  96 S3        29.96R
ANGOLA*        CLEAR     72  72 100 CALM      29.98S
FORT WAYNE     CLOUDY    70  68  93 SW10      29.99R
PERU/GRISSOM   CLOUDY    70  70 100 SE7       30.00R

$$
INZ028>050-220400-
CENTRAL INDIANA

CITY           SKY/WX    TMP DP  RH WIND       PRES   REMARKS
LAFAYETTE      CLOUDY    73  72  96 CALM      29.96S
KOKOMO*        CLOUDY    70  66  88 SE10      30.01R
MUNCIE*        LGT RAIN  70  67  90 CALM      30.03S
INDIANAPOLIS   CLOUDY    80  75  84 N3        30.01R THUNDER

$$
MIZ043>046-050>051-056>058-064>065-071>073-077>080-220400-
SOUTHWEST LOWER MICHIGAN

CITY           SKY/WX    TMP DP  RH WIND       PRES   REMARKS
BATTLE CREEK   MOCLDY    74  70  87 CALM      29.99R
BENTON HARBOR  PTCLDY    71  70  96 CALM      29.96R FOG
COLDWATER*     PTCLDY    70  69  96 CALM      29.98S FOG
HILLSDALE*     PTCLDY    69  69 100 CALM      30.00S
HOLLAND        CLOUDY    72  70  93 E3        29.97R FOG
GRAND RAPIDS   CLOUDY    72  71  97 E3        29.98R FOG
KALAMAZOO      PTCLDY    73  70  90 CALM      29.98R
STURGIS*         N/A     72  72 100 SE3       29.98R
THREE RIVERS*  FAIR      72  70  93 CALM      29.98R

$$
OHZ001>008-015>018-024>025-220400-
NORTHWEST OHIO

CITY           SKY/WX    TMP DP  RH WIND       PRES   REMARKS
DEFIANCE       MOCLDY    74  70  87 S5        29.99R
FINDLAY        CLOUDY    73  69  87 S6        29.99R
TOLEDO EXPRESS MOCLDY    72  69  90 CALM      29.98S
TOLEDO METCALF CLOUDY    74  68  81 SW7       30.00R
LIMA           LGT RAIN  73  71  93 S9        30.00S FOG

$$
&&



USA.gov is the U.S. government's official web portal to all federal, state and local government web resources and services.